ONEWEB-0695

operational
NORAD ID: 61602 Int'l Des: 2024-188 Owner: ONEWEBE Country: UK Constellation: oneweb
LEOCIRCULARPOLARONEWEB_TYPE

About ONEWEB-0695

Description loading...

Live Position

Loading 3D Globe...

Upcoming Passes

Altitude History

Altitude vs Time

uPlot chart will show altitude changes over time

Two-Line Element Set

1 61602U 24188J 25251.50479023 .00000575 00000-0 15856-2 0 9997
2 61602 87.8771 77.2100 0001704 107.6799 252.4515 13.11416615 47546
Epoch: Sep 8, 2025 • Age: 15 hours

Current Status

Altitude 1230.0 km
Velocity 7.25 km/s
Sub-Earth Point 82.32°N, 156.1°W
Launch Date Oct 20, 2024
Age 0.8 years
Type internet

Technical Details

Classification Payload
Mass 148.00 kg
Dry Mass 140.00 kg
Total Mass 148.00 kg
Length 1.30 m
Diameter 1.00 m
Span 5.00 m
Shape Trapezoid+2 pan
Manufacturer ONEWUS
Bus Type ARROW
Phase Status In Orbit
Owner/State ONEWEBE/UK

Large Constellations

Loading constellations...